Погода в Поддубном

Россия / Воронежская область     49°53′35″N   39°22′23″E
темп.,
°C
ветер,
м/с
пор.,
м/с
влажн.,
%
обл.,
%
осадки,
мм/ч
давл.,
гПа
погр.,
м
10 мая, пн
пн1000:00+5ссз6138038 0.0 1019713
03:00+5сз61377100 0.0 1020766
06:00+5сз7147695 0.0 1019799
09:00+9ссз9136168 0.0 10191346
12:00+8ссз91370100 0.0 10171325
15:00+6ссз101884100 1.4 1015909
18:00+6ссз122093100 4.6 1012847
21:00+9ссв111895100 6.5 10101001
11 мая, вт
вт1100:00+8св91493100 0.1 1012960
03:00+7всв61192100 0.1 1014743
06:00+7св4895100 2.8 1015557
09:00+8всв71175100 2.9 10161239
12:00+10всв9137294 0.2 10161443
15:00+8всв91383100 0.6 10181214
18:00+7вюв71786100 0.2 10191242
21:00+8вюв101786100 0.9 10211274
12 мая, ср
ср1200:00+8в71589100 0.1 1021572
03:00+7всв51295100 1.5 1020503
06:00+7в51295100 3.1 1020624
09:00+9юв61191100 5.4 1020933
12:00+11юв4882100 1.3 1019832
15:00+15ююв696179 1.8 10171726
18:00+14ююв5872100 0.5 1017851
21:00+10юв22875 1.3 101722
13 мая, чт
чт1300:00+10вюв34875 0.0 101744
03:00+9вюв33875 0.0 101733
06:00+10вюв22855 0.0 101750
09:00+16юв346779 0.0 1017506
12:00+20юв345216 0.0 10171265
15:00+22юв4547100 0.0 10161505
18:00+20вюв3666100 0.0 1016208
21:00+16вюв4777100 0.0 1015103
14 мая, пт
пт1400:00+14вюв47820 0.0 1015112
03:00+13в41082100 0.0 1015150
06:00+15вюв51286100 0.0 1014263
09:00+20ююв5871100 0.0 1014532
12:00+23юв796182 0.0 1012884
15:00+26ююв785321 0.0 10121296
18:00+24ююв5966100 0.0 1011456
21:00+19юв4108580 0.0 1011172